DLH2DD EDDF-LDRI

Flight info

Callsign DLH2DD
Flight time 1h 10m
Altitude 33000
Route CINDY8S/18 CINDY Z74 LAMPU DCT NOMBO Y161 MAH DCT VAVOR DCT RADIZ DCT VEKEN DCT GIRDA
Aircraft A320/M-SDE3FGHIRWY/LB1

Departure

Time 2026-05-08 13:01
Airport Frankfurt Main Airport (EDDF)

Arrival

Time 2026-05-08 14:11
Airport Rijeka Airport (LDRI)
Time Latitude Longitude Altitude Speed Heading
2026-05-08 12:30 50.04416 8.56276 361 ft 0 kts 162°
2026-05-08 12:50 50.04424 8.56271 356 ft 4 kts 162°
2026-05-08 12:50 50.04450 8.56258 360 ft 4 kts 164°
2026-05-08 12:50 50.04472 8.56250 362 ft 4 kts 188°
2026-05-08 12:50 50.04489 8.56270 358 ft 4 kts 247°
2026-05-08 12:51 50.04498 8.56307 358 ft 4 kts 249°
2026-05-08 12:51 50.04514 8.56373 361 ft 0 kts 250°
2026-05-08 12:54 50.04513 8.56369 363 ft 2 kts 250°
2026-05-08 12:54 50.04496 8.56298 360 ft 8 kts 249°
2026-05-08 12:54 50.04478 8.56222 361 ft 7 kts 249°
2026-05-08 12:54 50.04452 8.56116 362 ft 14 kts 249°
2026-05-08 12:55 50.04385 8.56037 361 ft 12 kts 173°
2026-05-08 12:55 50.04304 8.56072 359 ft 12 kts 175°
2026-05-08 12:55 50.04241 8.55949 355 ft 20 kts 249°
2026-05-08 12:55 50.04192 8.55748 358 ft 20 kts 249°
2026-05-08 12:56 50.04143 8.55543 351 ft 21 kts 251°
2026-05-08 12:56 50.04095 8.55332 361 ft 20 kts 250°
2026-05-08 12:56 50.04046 8.55130 357 ft 20 kts 248°
2026-05-08 12:56 50.03999 8.54934 358 ft 19 kts 249°
2026-05-08 12:57 50.03951 8.54734 358 ft 21 kts 249°
2026-05-08 12:57 50.03891 8.54485 353 ft 26 kts 250°
2026-05-08 12:57 50.03802 8.54225 356 ft 28 kts 246°
2026-05-08 12:57 50.03730 8.53928 352 ft 30 kts 249°
2026-05-08 12:58 50.03701 8.53810 347 ft 9 kts 249°
2026-05-08 12:58 50.03670 8.53679 347 ft 18 kts 249°
2026-05-08 12:58 50.03618 8.53474 338 ft 19 kts 249°
2026-05-08 12:58 50.03581 8.53323 335 ft 12 kts 249°
2026-05-08 12:59 50.03541 8.53209 336 ft 12 kts 239°
2026-05-08 12:59 50.03520 8.53082 334 ft 15 kts 257°
2026-05-08 12:59 50.03496 8.52968 337 ft 18 kts 250°
2026-05-08 12:59 50.03453 8.52792 335 ft 17 kts 250°
2026-05-08 13:00 50.03411 8.52630 332 ft 15 kts 239°
2026-05-08 13:00 50.03309 8.52593 335 ft 21 kts 179°
2026-05-08 13:00 50.02968 8.52599 335 ft 85 kts 179°
2026-05-08 13:00 50.02165 8.52607 335 ft 144 kts 179°
2026-05-08 13:01 50.01018 8.52655 491 ft 176 kts 178°
2026-05-08 13:01 49.99811 8.52603 1336 ft 172 kts 181°
2026-05-08 13:01 49.98619 8.52619 2169 ft 170 kts 177°
2026-05-08 13:01 49.97461 8.52825 2842 ft 169 kts 161°
2026-05-08 13:02 49.96389 8.53751 3201 ft 188 kts 136°
2026-05-08 13:02 49.95593 8.55503 3511 ft 212 kts 118°
2026-05-08 13:02 49.94850 8.57608 4048 ft 228 kts 118°
2026-05-08 13:02 49.94172 8.59870 4753 ft 237 kts 105°
2026-05-08 13:03 49.93969 8.62487 5215 ft 256 kts 94°
2026-05-08 13:03 49.93862 8.65328 5899 ft 269 kts 95°
2026-05-08 13:03 49.93450 8.68178 6764 ft 274 kts 114°
2026-05-08 13:03 49.92457 8.70701 7591 ft 277 kts 133°
2026-05-08 13:04 49.90980 8.72639 8429 ft 280 kts 146°
2026-05-08 13:04 49.89391 8.74434 9284 ft 286 kts 141°
2026-05-08 13:04 49.88028 8.76722 10100 ft 293 kts 126°
2026-05-08 13:04 49.86965 8.79500 10628 ft 310 kts 121°
2026-05-08 13:05 49.85868 8.82530 10884 ft 334 kts 120°
2026-05-08 13:05 49.84702 8.85761 11137 ft 349 kts 120°
2026-05-08 13:05 49.83505 8.89080 11674 ft 356 kts 120°
2026-05-08 13:05 49.82053 8.92202 12417 ft 359 kts 135°
2026-05-08 13:06 49.80304 8.94991 13172 ft 363 kts 136°
2026-05-08 13:06 49.78524 8.97793 13911 ft 367 kts 136°
2026-05-08 13:06 49.76721 9.00617 14562 ft 371 kts 136°
2026-05-08 13:06 49.74897 9.03473 15233 ft 375 kts 136°
2026-05-08 13:07 49.73055 9.06354 15891 ft 379 kts 136°
2026-05-08 13:07 49.71197 9.09262 16532 ft 383 kts 136°
2026-05-08 13:07 49.69319 9.12202 17171 ft 386 kts 136°
2026-05-08 13:07 49.67422 9.15171 17792 ft 390 kts 136°
2026-05-08 13:08 49.65508 9.18162 18403 ft 393 kts 136°
2026-05-08 13:08 49.63575 9.21175 18935 ft 396 kts 136°
2026-05-08 13:08 49.61625 9.24211 19473 ft 399 kts 136°
2026-05-08 13:08 49.59664 9.27269 20011 ft 402 kts 136°
2026-05-08 13:09 49.57693 9.30339 20574 ft 404 kts 136°
2026-05-08 13:09 49.55706 9.33423 21100 ft 407 kts 136°
2026-05-08 13:09 49.53702 9.36525 21627 ft 410 kts 137°
2026-05-08 13:09 49.51688 9.39640 22146 ft 412 kts 137°
2026-05-08 13:10 49.49656 9.42777 22663 ft 415 kts 137°
2026-05-08 13:10 49.47612 9.45930 23166 ft 417 kts 137°
2026-05-08 13:10 49.45553 9.49104 23660 ft 420 kts 137°
2026-05-08 13:10 49.43481 9.52296 24072 ft 423 kts 137°
2026-05-08 13:11 49.41399 9.55496 24490 ft 425 kts 137°
2026-05-08 13:11 49.39330 9.58669 24890 ft 427 kts 137°
2026-05-08 13:11 49.37224 9.61899 25286 ft 429 kts 137°
2026-05-08 13:11 49.35107 9.65145 25676 ft 432 kts 137°
2026-05-08 13:12 49.32973 9.68411 26061 ft 434 kts 137°
2026-05-08 13:12 49.30831 9.71684 26444 ft 436 kts 137°
2026-05-08 13:12 49.28679 9.74967 26827 ft 438 kts 137°
2026-05-08 13:12 49.26513 9.78270 27206 ft 441 kts 137°
2026-05-08 13:13 49.24337 9.81585 27583 ft 443 kts 137°
2026-05-08 13:13 49.22148 9.84915 27944 ft 445 kts 137°
2026-05-08 13:13 49.19948 9.88262 28299 ft 447 kts 137°
2026-05-08 13:13 49.17735 9.91623 28631 ft 449 kts 137°
2026-05-08 13:14 49.15513 9.94994 28970 ft 451 kts 137°
2026-05-08 13:14 49.13281 9.98369 29288 ft 453 kts 137°
2026-05-08 13:14 49.11030 10.01763 29604 ft 455 kts 137°
2026-05-08 13:14 49.08771 10.05162 29911 ft 457 kts 138°
2026-05-08 13:15 49.06502 10.08573 30209 ft 459 kts 138°
2026-05-08 13:15 49.04206 10.11970 30529 ft 459 kts 139°
2026-05-08 13:15 49.01883 10.15294 30899 ft 458 kts 140°
2026-05-08 13:15 48.99540 10.18572 31264 ft 457 kts 140°
2026-05-08 13:16 48.97194 10.21825 31633 ft 456 kts 140°
2026-05-08 13:16 48.94850 10.25082 31995 ft 455 kts 140°
2026-05-08 13:16 48.92521 10.28343 32354 ft 455 kts 140°
2026-05-08 13:16 48.90205 10.31607 32722 ft 454 kts 140°
2026-05-08 13:17 48.87890 10.34877 33046 ft 454 kts 140°
2026-05-08 13:17 48.85578 10.38143 33124 ft 453 kts 140°
2026-05-08 13:17 48.81019 10.44703 33125 ft 452 kts 138°
2026-05-08 13:18 48.76681 10.51615 33117 ft 453 kts 136°
2026-05-08 13:18 48.72422 10.58655 33117 ft 453 kts 136°
2026-05-08 13:19 48.68108 10.65628 33105 ft 454 kts 137°
2026-05-08 13:19 48.63749 10.72521 33090 ft 453 kts 137°
2026-05-08 13:20 48.59381 10.79406 33073 ft 453 kts 138°
2026-05-08 13:20 48.55036 10.86308 33061 ft 454 kts 137°
2026-05-08 13:21 48.50704 10.93259 33062 ft 454 kts 138°
2026-05-08 13:21 48.46362 11.00175 33058 ft 454 kts 139°
2026-05-08 13:22 48.41970 11.07007 33056 ft 454 kts 139°
2026-05-08 13:22 48.37565 11.13813 33055 ft 454 kts 139°
2026-05-08 13:23 48.33165 11.20625 33055 ft 454 kts 140°
2026-05-08 13:23 48.28766 11.27429 33057 ft 454 kts 140°
2026-05-08 13:24 48.24871 11.34954 33062 ft 464 kts 125°
2026-05-08 13:24 48.21662 11.43350 33055 ft 463 kts 125°
2026-05-08 13:25 48.18434 11.51709 33054 ft 463 kts 126°
2026-05-08 13:25 48.15191 11.60041 33051 ft 463 kts 126°
2026-05-08 13:26 48.11944 11.68356 33047 ft 463 kts 126°
2026-05-08 13:26 48.08701 11.76667 33043 ft 463 kts 126°
2026-05-08 13:27 48.05450 11.84973 33036 ft 463 kts 127°
2026-05-08 13:27 48.02193 11.93263 33035 ft 463 kts 127°
2026-05-08 13:28 47.98923 12.01541 33030 ft 463 kts 127°
2026-05-08 13:28 47.95648 12.09815 33028 ft 463 kts 127°
2026-05-08 13:29 47.91826 12.17337 33028 ft 448 kts 143°
2026-05-08 13:29 47.87134 12.23323 33030 ft 444 kts 147°
2026-05-08 13:30 47.82401 12.29239 33035 ft 444 kts 147°
2026-05-08 13:30 47.77675 12.35149 33033 ft 444 kts 147°
2026-05-08 13:31 47.72946 12.41052 33033 ft 444 kts 147°
2026-05-08 13:31 47.68222 12.46927 33022 ft 443 kts 147°
2026-05-08 13:32 47.63478 12.52765 33026 ft 440 kts 150°
2026-05-08 13:32 47.58300 12.57343 33025 ft 432 kts 159°
2026-05-08 13:33 47.53024 12.61590 33025 ft 432 kts 158°
2026-05-08 13:33 47.47755 12.65844 33022 ft 431 kts 158°
2026-05-08 13:34 47.42484 12.70079 33018 ft 431 kts 158°
2026-05-08 13:34 47.37194 12.74319 33048 ft 439 kts 158°
2026-05-08 13:35 47.31742 12.78667 33039 ft 449 kts 157°
2026-05-08 13:35 47.28993 12.80863 33223 ft 449 kts 158°
2026-05-08 13:35 47.26282 12.83036 33989 ft 438 kts 158°
2026-05-08 13:36 47.23618 12.85175 34520 ft 434 kts 157°
2026-05-08 13:36 47.21003 12.87261 34780 ft 434 kts 157°
2026-05-08 13:36 47.18307 12.89397 34985 ft 435 kts 157°
2026-05-08 13:36 47.15668 12.91481 35032 ft 436 kts 157°
2026-05-08 13:37 47.10301 12.95714 34574 ft 438 kts 157°
2026-05-08 13:37 47.07629 12.97828 34330 ft 436 kts 158°
2026-05-08 13:37 47.04962 12.99943 34093 ft 435 kts 158°
2026-05-08 13:38 47.02299 13.02056 33821 ft 435 kts 158°
2026-05-08 13:38 46.99638 13.04166 33533 ft 435 kts 158°
2026-05-08 13:38 46.96972 13.06271 33263 ft 436 kts 158°
2026-05-08 13:38 46.94297 13.08372 33026 ft 436 kts 158°
2026-05-08 13:39 46.88935 13.12563 33046 ft 438 kts 158°
2026-05-08 13:39 46.83559 13.16766 32759 ft 438 kts 158°
2026-05-08 13:40 46.80875 13.18867 32494 ft 438 kts 158°
2026-05-08 13:40 46.78188 13.20967 32226 ft 438 kts 158°
2026-05-08 13:40 46.75499 13.23064 31967 ft 439 kts 158°
2026-05-08 13:40 46.73682 13.24481 31787 ft 439 kts 157°
2026-05-08 13:41 46.70112 13.27265 31453 ft 440 kts 157°
2026-05-08 13:41 46.68283 13.28689 31279 ft 441 kts 157°
2026-05-08 13:41 46.65574 13.30790 31025 ft 442 kts 157°
2026-05-08 13:41 46.62849 13.32902 30775 ft 443 kts 156°
2026-05-08 13:42 46.60126 13.35013 30523 ft 445 kts 156°
2026-05-08 13:42 46.57388 13.37131 30282 ft 445 kts 156°
2026-05-08 13:42 46.54649 13.39222 30021 ft 445 kts 157°
2026-05-08 13:42 46.51889 13.41236 29733 ft 443 kts 158°
2026-05-08 13:43 46.49121 13.43184 29450 ft 441 kts 159°
2026-05-08 13:43 46.46394 13.45067 29171 ft 439 kts 159°
2026-05-08 13:43 46.43634 13.46964 28894 ft 439 kts 158°
2026-05-08 13:43 46.40883 13.48866 28615 ft 438 kts 158°
2026-05-08 13:44 46.38146 13.50777 28339 ft 436 kts 158°
2026-05-08 13:44 46.35418 13.52697 28085 ft 435 kts 158°
2026-05-08 13:44 46.32698 13.54614 27804 ft 434 kts 158°
2026-05-08 13:44 46.29991 13.56518 27539 ft 433 kts 158°
2026-05-08 13:45 46.27283 13.58418 27278 ft 431 kts 157°
2026-05-08 13:45 46.24582 13.60310 27015 ft 430 kts 157°
2026-05-08 13:45 46.21898 13.62188 26757 ft 428 kts 157°
2026-05-08 13:45 46.19221 13.64061 26495 ft 426 kts 157°
2026-05-08 13:46 46.16557 13.65925 26243 ft 425 kts 157°
2026-05-08 13:46 46.13895 13.67785 25984 ft 424 kts 157°
2026-05-08 13:46 46.11246 13.69630 25740 ft 422 kts 157°
2026-05-08 13:46 46.08598 13.71466 25492 ft 421 kts 157°
2026-05-08 13:47 46.05962 13.73290 25246 ft 420 kts 156°
2026-05-08 13:47 46.03337 13.75108 25042 ft 419 kts 156°
2026-05-08 13:47 46.00715 13.76929 25036 ft 418 kts 156°
2026-05-08 13:47 45.98091 13.78750 25002 ft 420 kts 156°
2026-05-08 13:48 45.95457 13.80574 24771 ft 419 kts 156°
2026-05-08 13:48 45.92838 13.82386 24367 ft 418 kts 156°
2026-05-08 13:48 45.90230 13.84188 23829 ft 414 kts 156°
2026-05-08 13:48 45.87643 13.85972 23235 ft 411 kts 156°
2026-05-08 13:49 45.85063 13.87751 22601 ft 408 kts 156°
2026-05-08 13:49 45.82516 13.89507 22001 ft 405 kts 155°
2026-05-08 13:49 45.79984 13.91249 21408 ft 402 kts 156°
2026-05-08 13:49 45.77471 13.92974 20814 ft 399 kts 155°
2026-05-08 13:50 45.74974 13.94687 20242 ft 397 kts 155°
2026-05-08 13:50 45.72492 13.96386 19679 ft 394 kts 155°
2026-05-08 13:50 45.70025 13.98070 19127 ft 392 kts 155°
2026-05-08 13:50 45.67614 13.99718 18806 ft 386 kts 155°
2026-05-08 13:51 45.65167 14.01392 18530 ft 384 kts 155°
2026-05-08 13:51 45.62762 14.03039 18237 ft 382 kts 155°
2026-05-08 13:51 45.60400 14.04654 17914 ft 381 kts 155°
2026-05-08 13:51 45.58015 14.06282 17592 ft 379 kts 155°
2026-05-08 13:52 45.55645 14.07894 17276 ft 377 kts 156°
2026-05-08 13:52 45.53282 14.09497 16962 ft 375 kts 155°
2026-05-08 13:52 45.50981 14.11239 16641 ft 374 kts 148°
2026-05-08 13:52 45.48915 14.13485 16351 ft 373 kts 138°
2026-05-08 13:53 45.47151 14.16197 16037 ft 373 kts 128°
2026-05-08 13:53 45.45738 14.19281 15736 ft 372 kts 119°
2026-05-08 13:53 45.44649 14.22613 15434 ft 371 kts 115°
2026-05-08 13:53 45.43600 14.25959 15139 ft 369 kts 115°
2026-05-08 13:54 45.42549 14.29278 14846 ft 367 kts 115°
2026-05-08 13:54 45.41500 14.32573 14549 ft 364 kts 115°
2026-05-08 13:54 45.40467 14.35812 14265 ft 355 kts 115°
2026-05-08 13:54 45.39454 14.38984 13981 ft 348 kts 115°
2026-05-08 13:55 45.38460 14.42093 13678 ft 342 kts 115°
2026-05-08 13:55 45.37490 14.45138 13362 ft 335 kts 115°
2026-05-08 13:55 45.35610 14.51029 12890 ft 320 kts 115°
2026-05-08 13:56 45.34700 14.53876 12657 ft 313 kts 115°
2026-05-08 13:56 45.33805 14.56673 12415 ft 307 kts 115°
2026-05-08 13:56 45.32926 14.59410 12190 ft 302 kts 115°
2026-05-08 13:56 45.32055 14.62117 11955 ft 300 kts 115°
2026-05-08 13:57 45.31187 14.64808 11728 ft 299 kts 115°
2026-05-08 13:57 45.30321 14.67496 11510 ft 299 kts 115°
2026-05-08 13:57 45.29457 14.70178 11283 ft 298 kts 115°
2026-05-08 13:57 45.28595 14.72853 11060 ft 298 kts 115°
2026-05-08 13:58 45.27733 14.75523 10839 ft 297 kts 115°
2026-05-08 13:58 45.26874 14.78185 10623 ft 296 kts 115°
2026-05-08 13:58 45.26016 14.80839 10405 ft 294 kts 115°
2026-05-08 13:58 45.25176 14.83441 10178 ft 287 kts 115°
2026-05-08 13:59 45.24350 14.85996 9974 ft 282 kts 115°
2026-05-08 13:59 45.23538 14.88500 9747 ft 276 kts 115°
2026-05-08 13:59 45.22743 14.90951 9508 ft 271 kts 115°
2026-05-08 13:59 45.21963 14.93355 9265 ft 266 kts 115°
2026-05-08 14:00 45.21194 14.95717 9040 ft 261 kts 115°
2026-05-08 14:00 45.20438 14.98039 8811 ft 258 kts 115°
2026-05-08 14:00 45.19690 15.00331 8573 ft 254 kts 116°
2026-05-08 14:00 45.18742 15.02400 8349 ft 248 kts 132°
2026-05-08 14:01 45.17477 15.04002 7947 ft 242 kts 148°
2026-05-08 14:01 45.15992 15.05065 7526 ft 237 kts 162°
2026-05-08 14:01 45.14398 15.05568 7145 ft 233 kts 176°
2026-05-08 14:01 45.12795 15.05513 6752 ft 229 kts 189°
2026-05-08 14:02 45.11236 15.05182 6550 ft 219 kts 189°
2026-05-08 14:02 45.09732 15.04873 6945 ft 221 kts 189°
2026-05-08 14:02 45.08204 15.04560 7341 ft 223 kts 189°
2026-05-08 14:02 45.06706 15.04015 7740 ft 223 kts 204°
2026-05-08 14:03 45.05381 15.02883 8026 ft 225 kts 220°
2026-05-08 14:03 45.04331 15.01237 7745 ft 225 kts 239°
2026-05-08 14:03 45.03700 14.99248 7445 ft 221 kts 255°
2026-05-08 14:03 45.03288 14.97155 7149 ft 221 kts 254°
2026-05-08 14:04 45.02867 14.95073 6854 ft 220 kts 254°
2026-05-08 14:04 45.02445 14.93013 6570 ft 222 kts 254°
2026-05-08 14:04 45.02014 14.90911 6271 ft 224 kts 254°
2026-05-08 14:04 45.01577 14.88774 5903 ft 229 kts 254°
2026-05-08 14:05 45.01133 14.86596 5514 ft 233 kts 254°
2026-05-08 14:05 45.00681 14.84378 5135 ft 236 kts 254°
2026-05-08 14:05 45.00305 14.82142 4750 ft 232 kts 267°
2026-05-08 14:05 45.00539 14.79965 4606 ft 219 kts 293°
2026-05-08 14:06 45.01361 14.78179 4613 ft 217 kts 317°
2026-05-08 14:06 45.02557 14.76876 4630 ft 218 kts 325°
2026-05-08 14:06 45.03790 14.75612 4454 ft 220 kts 325°
2026-05-08 14:06 45.05026 14.74339 4166 ft 221 kts 325°
2026-05-08 14:07 45.06277 14.73051 3865 ft 225 kts 324°
2026-05-08 14:07 45.07540 14.71747 3538 ft 222 kts 324°
2026-05-08 14:07 45.08771 14.70471 3224 ft 217 kts 324°
2026-05-08 14:07 45.09972 14.69228 2927 ft 211 kts 323°
2026-05-08 14:08 45.11146 14.68012 2652 ft 205 kts 323°
2026-05-08 14:08 45.12268 14.66852 2391 ft 196 kts 323°
2026-05-08 14:08 45.13352 14.65733 2097 ft 190 kts 322°
2026-05-08 14:08 45.14414 14.64636 1868 ft 186 kts 322°
2026-05-08 14:09 45.15413 14.63600 1620 ft 167 kts 322°
2026-05-08 14:09 45.16316 14.62664 1373 ft 155 kts 321°
2026-05-08 14:09 45.17152 14.61795 1189 ft 146 kts 321°
2026-05-08 14:09 45.17968 14.60945 985 ft 146 kts 322°
2026-05-08 14:10 45.18767 14.60116 783 ft 139 kts 322°
2026-05-08 14:10 45.19538 14.59313 597 ft 136 kts 322°
2026-05-08 14:10 45.20291 14.58511 428 ft 135 kts 321°
2026-05-08 14:10 45.21045 14.57721 267 ft 131 kts 323°
2026-05-08 14:11 45.21602 14.57139 287 ft 87 kts 323°
2026-05-08 14:11 45.21951 14.56775 287 ft 42 kts 323°
2026-05-08 14:11 45.22179 14.56535 284 ft 40 kts 323°
2026-05-08 14:11 45.22388 14.56317 277 ft 31 kts 324°
2026-05-08 14:12 45.22493 14.56213 272 ft 13 kts 329°
2026-05-08 14:12 45.22566 14.56193 271 ft 6 kts 340°
2026-05-08 14:12 45.22559 14.56151 271 ft 4 kts 195°
2026-05-08 14:12 45.22537 14.56169 271 ft 6 kts 144°
2026-05-08 14:13 45.22481 14.56228 272 ft 14 kts 143°
2026-05-08 14:13 45.22396 14.56316 275 ft 18 kts 143°
2026-05-08 14:13 45.22278 14.56437 280 ft 25 kts 144°
2026-05-08 14:13 45.22136 14.56587 287 ft 18 kts 143°
2026-05-08 14:14 45.22057 14.56714 287 ft 17 kts 110°
2026-05-08 14:14 45.22029 14.56848 288 ft 9 kts 106°
2026-05-08 14:14 45.22013 14.56927 288 ft 8 kts 105°
2026-05-08 14:14 45.21986 14.56987 288 ft 7 kts 146°
2026-05-08 14:15 45.21953 14.57020 288 ft 6 kts 143°
2026-05-08 14:15 45.21923 14.57053 288 ft 5 kts 136°
2026-05-08 14:15 45.21919 14.57097 288 ft 4 kts 99°
2026-05-08 14:15 45.21913 14.57133 288 ft 3 kts 103°
2026-05-08 14:16 45.21911 14.57141 288 ft 0 kts 103°